Hourly Data Report for January 13, 2022

OTTAWA INTL A
ONTARIO
Current Station Operator: NAVCAN

45°19'00.000" N
75°40'00.000" W
114.90 m
6106001
71628
YOW

Download Data

Hourly Data (January 2022)
Hourly Data Report for January 13, 2022
TIME
LST
Temp Definition
°C
Dew Point Definition
°C
Rel Hum Definition
%
Precip. Amount Definition
mm

Wind Dir Definition
10's deg

Wind Spd Definition
km/h
Visibility Definition
km
Stn Press Definition
kPa
Hmdx Definition


Wind Chill Definition


Weather Definition


00:00 -6.9 -8.1 91   6 10 16.1 100.29   -12 Snow
01:00 -7.4 -9.0 89   5 15 24.1 100.24   -14 Snow
02:00 -7.8 -9.7 87   4 13 24.1 100.27   -14 Snow
03:00 -7.9 -9.8 86   6 10 24.1 100.25   -13 Snow
04:00 -8.0 -10.1 85   5 12 24.1 100.22   -13 Snow
05:00 -8.1 -9.9 87   5 14 24.1 100.19   -14 Snow
06:00 -8.2 -9.9 88   7 14 24.1 100.22   -14 Snow
07:00 -8.8 -10.3 89   7 15 8.1 100.25   -15 Snow
08:00 -9.6 -11.2 88   6 15 6.4 100.27   -16 Fog
09:00 -9.8 -11.4 88   6 13 6.4 100.27   -16 Fog
10:00 -9.5 -11.2 88   7 13 8.1 100.22   -16 Fog
11:00 -9.0 -10.8 87   7 12 8.1 100.19   -15 Fog
12:00 -8.6 -10.6 86   8 10 8.1 100.07   -14 Fog
13:00 -7.8 -9.9 84   8 11 12.9 99.98   -13 Cloudy
14:00 -7.7 -10.0 83   8 6 16.1 99.94   -11 LegendNANA
15:00 -7.5 -9.7 84   9 10 16.1 99.90   -12 LegendNANA
16:00 -7.6 -9.8 84   10 9 12.9 99.92   -12 Cloudy
17:00 -7.5 -9.7 84   8 6 12.9 99.93   -11 LegendNANA
18:00 -7.4 -9.5 85   2 3 12.9 100.00   -9 LegendNANA
19:00 -7.4 -9.5 85   2 5 24.1 100.02   -10 Cloudy
20:00 -7.5 -9.7 85   6 4 24.1 100.02   -10 LegendNANA
21:00 -7.5 -9.6 85   5 5 24.1 99.99   -10 LegendNANA
22:00 -7.6 -9.6 86   7 5 24.1 100.01   -10 Cloudy
23:00 -7.4 -9.4 86   29 4 24.1 100.07   -9 LegendNANA

Notes on Data Quality.

Legend

  • E = Estimated
  • M = Missing
  • NA = Not Available*
  • [empty] = Indicates an unobserved value
Date modified: